{"data":{"norad_id":60278,"epoch":"2026-09-21T07:24:01.635264Z","epoch_age_seconds":111959,"freshness":"FRESH","line1":"1 60278U 24132A   26264.30835226 -.00000019  00000+0  10571-4 0  9992","line2":"2 60278  53.1584 222.1611 0001250  85.0533 275.0613 15.34396085122753","mean_motion":15.34396085,"eccentricity":0.000125,"inclination_deg":53.1584,"raan_deg":222.1611,"arg_perigee_deg":85.0533,"mean_anomaly_deg":275.0613,"bstar":1.0571e-5,"rev_number":12275,"period_min":93.847997533179,"perigee_km":461.85976995234,"apogee_km":463.56998292145,"semimajor_km":6840.8518764369,"source":"CELESTRAK","updated_at":"2026-09-22T09:00:49.191055Z"}}